Weather in Oremif

Russia / Khabarovsk Krai     53°00′32″N   141°05′49″E
temp.,
°C
wind,
m/s
gust,
m/s
humid.,
%
clouds,
%
prec.,
mm/h
press.,
hPa
HPBL,
m
27 february, sat
sat2701:00−20wnw339684 0.0 102842
04:00−22wnw339450 0.0 102839
07:00−23wnw33910 0.0 102732
10:00−17wnw12880 0.0 102891
13:00−13ene12890 0.0 1026293
16:00−13sse119620 0.0 1024188
19:00−18ese119996 0.0 102420
22:00−18e129998 0.1 102220
28 february, sun
sun2801:00−17e2299100 0.0 101874
04:00−15ese1297100 0.4 1014116
07:00−13e1196100 0.9 101168
10:00−11nw3691100 1.2 1010374
13:00−10wnw488392 0.0 1010820
16:00−11wnw598590 0.1 1011717
19:00−17wnw598999 0.1 1013431
22:00−20w5109079 0.1 1014291
1 march, mon
mon101:00−21wnw5109154 0.0 1015268
04:00−20w599275 0.1 1017279
07:00−19w51090100 0.1 1018385
10:00−18wnw71377100 0.1 1020662
13:00−18wnw71176100 0.0 1020936
16:00−18wnw6127778 0.0 10211022
19:00−23w33880 0.0 102328
22:00−24w239240 0.0 102321
2 march, tue
tue201:00−25w338919 0.0 102332
04:00−26wsw348410 0.0 102439
07:00−27wsw22800 0.0 102620
10:00−21w488112 0.0 1026596
13:00−19w457168 0.0 10261095
16:00−19w357149 0.0 1026860
19:00−23wsw2382100 0.0 102720
22:00−26wsw228452 0.0 102720
3 march, wed
wed301:00−26w23850 0.0 102620
04:00−27w23830 0.0 102520
07:00−28w23820 0.0 102520
10:00−22wnw23810 0.0 1024163
13:00−16wnw38570 0.0 10211041
16:00−16wsw14680 0.0 1019537
19:00−23sse11850 0.0 101720
22:00−23w00876 0.0 101620